Dunkirk, NY
on Wednesday, December 6, 2017

Wednesday
       
Previous Day Next Day
Daily Summary
 ActualAverageRecord
Temperature
Mean Temperature °F °C °F °C  
Max Temperature 39°F 4°C 41°F 5°C 68°F 20°C (1982)
Min Temperature 28°F -2°C 28°F -2°C 11°F -11°C (1926)
Degree Days
Heating Degree Days 32    
Moisture
Dew Point 20°F -7°C   
Average Humidity 55    
Maximum Humidity 67    
Minimum Humidity 46    
Precipitation
Precipitation 0.00 in / 0.00 cm in / cm in / cm ()
Wind
Wind Speed 21 mph / 34 km/h   
Max Wind Speed 26 mph / 42 km/h   
Max Gust Speed 38 mph / 61 km/h   
Visibility 10 miles / 16 kilometers   
Events Rain , Snow   
Averages and records for this station are not official NWS values.
Key: T is trace of precipitation, MM is missing value
Source: NWS Daily Summary
Seasonal Weather Averages
Time(EST)TemperatureDew PointHumidity Pressure Visibility Wind DirectionWind SpeedGust SpeedPrecipitationEvents Conditions
12:53 AM 34.0°F 1.1°C 19.9°F -6.7°C 56% 29.91 in / 1012.8 hPa 10.0 miles / 16.1 kilometers SW 21.9 mph / 35.2 km/h 31.1 mph / 50.0 km/h 0.00 in / 0.0 cm   Overcast
1:53 AM 33.1°F 0.6°C 19.0°F -7.2°C 56% 29.91 in / 1012.9 hPa 10.0 miles / 16.1 kilometers SSW 19.6 mph / 31.5 km/h 34.5 mph / 55.6 km/h N/A   Overcast
2:53 AM 33.1°F 0.6°C 19.0°F -7.2°C 56% 29.93 in / 1013.4 hPa 10.0 miles / 16.1 kilometers SW 24.2 mph / 38.9 km/h 36.8 mph / 59.3 km/h N/A   Overcast
3:53 AM 33.1°F 0.6°C 18.0°F -7.8°C 54% 29.93 in / 1013.3 hPa 10.0 miles / 16.1 kilometers SW 18.4 mph / 29.6 km/h 35.7 mph / 57.4 km/h N/A   Overcast
4:53 AM 32.0°F 0.0°C 17.1°F -8.3°C 54% 29.92 in / 1013.2 hPa 10.0 miles / 16.1 kilometers SSW 21.9 mph / 35.2 km/h 29.9 mph / 48.2 km/h 0.00 in / 0.0 cm   Overcast
5:53 AM 30.0°F -1.1°C 16.0°F -8.9°C 56% 29.93 in / 1013.5 hPa 10.0 miles / 16.1 kilometers SSW 25.3 mph / 40.7 km/h 29.9 mph / 48.2 km/h N/A   Scattered Clouds
6:53 AM 30.0°F -1.1°C 15.1°F -9.4°C 54% 29.94 in / 1013.9 hPa 10.0 miles / 16.1 kilometers SSW 20.7 mph / 33.3 km/h 27.6 mph / 44.4 km/h N/A   Clear
7:53 AM 28.9°F -1.7°C 12.9°F -10.6°C 51% 29.95 in / 1014.2 hPa 10.0 miles / 16.1 kilometers SSW 19.6 mph / 31.5 km/h 27.6 mph / 44.4 km/h N/A   Clear
8:53 AM 30.9°F -0.6°C 14.0°F -10.0°C 50% 29.94 in / 1013.9 hPa 10.0 miles / 16.1 kilometers SSW 23.0 mph / 37.0 km/h 29.9 mph / 48.2 km/h N/A   Clear
9:53 AM 34.0°F 1.1°C 15.1°F -9.4°C 46% 29.93 in / 1013.4 hPa 10.0 miles / 16.1 kilometers SW 19.6 mph / 31.5 km/h 29.9 mph / 48.2 km/h 0.00 in / 0.0 cm   Scattered Clouds
10:53 AM 34.0°F 1.1°C 19.0°F -7.2°C 54% 29.93 in / 1013.5 hPa 10.0 miles / 16.1 kilometers SW 25.3 mph / 40.7 km/h 33.4 mph / 53.7 km/h 0.00 in / 0.0 cm   Overcast
11:53 AM 34.0°F 1.1°C 21.0°F -6.1°C 59% 29.91 in / 1012.7 hPa 10.0 miles / 16.1 kilometers SW 23.0 mph / 37.0 km/h 31.1 mph / 50.0 km/h N/A   Overcast
12:53 PM 35.1°F 1.7°C 21.9°F -5.6°C 59% 29.89 in / 1012.2 hPa 9.0 miles / 14.5 kilometers SW 24.2 mph / 38.9 km/h 38.0 mph / 61.1 km/h 0.00 in / 0.0 cm Snow Light Snow
1:53 PM 36.0°F 2.2°C 21.9°F -5.6°C 57% 29.89 in / 1012.0 hPa 10.0 miles / 16.1 kilometers SW 24.2 mph / 38.9 km/h 33.4 mph / 53.7 km/h 0.00 in / 0.0 cm   Overcast
2:53 PM 36.0°F 2.2°C 23.0°F -5.0°C 59% 29.88 in / 1011.6 hPa 10.0 miles / 16.1 kilometers SW 18.4 mph / 29.6 km/h 28.8 mph / 46.3 km/h 0.00 in / 0.0 cm   Overcast
3:53 PM 37.0°F 2.8°C 21.9°F -5.6°C 54% 29.87 in / 1011.5 hPa 10.0 miles / 16.1 kilometers SW 26.5 mph / 42.6 km/h 34.5 mph / 55.6 km/h N/A   Overcast
4:53 PM 37.0°F 2.8°C 21.9°F -5.6°C 54% 29.87 in / 1011.5 hPa 10.0 miles / 16.1 kilometers SSW 20.7 mph / 33.3 km/h 25.3 mph / 40.7 km/h N/A   Overcast
5:53 PM 37.9°F 3.3°C 21.9°F -5.6°C 53% 29.87 in / 1011.5 hPa 10.0 miles / 16.1 kilometers SSW 15.0 mph / 24.1 km/h 24.2 mph / 38.9 km/h N/A   Overcast
6:53 PM 39.0°F 3.9°C 26.1°F -3.3°C 60% 29.88 in / 1011.9 hPa 10.0 miles / 16.1 kilometers WSW 23.0 mph / 37.0 km/h 38.0 mph / 61.1 km/h 0.00 in / 0.0 cm   Overcast
7:53 PM 37.0°F 2.8°C 27.0°F -2.8°C 67% 29.91 in / 1012.6 hPa 10.0 miles / 16.1 kilometers SW 18.4 mph / 29.6 km/h 32.2 mph / 51.9 km/h N/A   Overcast
8:53 PM 39.0°F 3.9°C 25.0°F -3.9°C 57% 29.91 in / 1012.8 hPa 10.0 miles / 16.1 kilometers WSW 24.2 mph / 38.9 km/h 38.0 mph / 61.1 km/h 0.00 in / 0.0 cm Rain Light Rain
9:53 PM 37.9°F 3.3°C 21.9°F -5.6°C 53% 29.91 in / 1012.9 hPa 10.0 miles / 16.1 kilometers West 20.7 mph / 33.3 km/h 32.2 mph / 51.9 km/h 0.00 in / 0.0 cm   Overcast
10:53 PM 37.0°F 2.8°C 24.1°F -4.4°C 59% 29.93 in / 1013.4 hPa 9.0 miles / 14.5 kilometers West 18.4 mph / 29.6 km/h 33.4 mph / 53.7 km/h 0.00 in / 0.0 cm   Overcast
11:53 PM 37.0°F 2.8°C 21.9°F -5.6°C 54% 29.94 in / 1013.6 hPa 10.0 miles / 16.1 kilometers West 13.8 mph / 22.2 km/h 29.9 mph / 48.2 km/h N/A   Overcast